Regional Weather Roundup
Issued by NWS

Home | Current Version | Previous Version | Text Only | Print | Product List | Glossary On
Versions: 1 2 3 4 5 6 7 8 9 10 11 12 13 14 15 16 17 18 19 20 21 22 23 24 25 26 27 28 29 30 31 32 33 34 35 36 37 38 39 40 41 42 43 44 45 46 47 48 49 50
000
ASUS43 KBIS 241210
RWRND
NORTH DAKOTA REGIONAL WEATHER ROUNDUP
NATIONAL WEATHER SERVICE EASTERN NORTH DAKOTA/GRAND FORKS ND
700 AM CDT WED MAY 24 2017

  NOTE: "FAIR" INDICATES FEW OR NO CLOUDS BELOW 12,000 FEET WITH NO
  SIGNIFICANT WEATHER AND/OR OBSTRUCTIONS TO VISIBILITY.

NDZ001>003-009>011-017-241300-
...NORTHWEST NORTH DAKOTA...

CITY           SKY/WX    TMP DP  RH WIND       PRES   REMARKS
WILLISTON      FAIR      53  37  54 SE21G28   29.64F
6HR MIN TEMP:  52; 6HR MAX TEMP:  58;

MINOT          FAIR      52  38  58 S14G22    29.74F
MINOT AFB      FAIR      50  38  62 S14       29.73F
6HR MIN TEMP:  48; 6HR MAX TEMP:  54;

$$

NDZ018>021-031>035-040>046-241300-
...SOUTHWEST NORTH DAKOTA...

CITY           SKY/WX    TMP DP  RH WIND       PRES   REMARKS
BISMARCK       FAIR      38  35  89 CALM      29.81F
DICKINSON      FAIR      44  34  67 S18       29.70F
GARRISON         N/A     45  39  79 S10       29.76F
HETTINGER      FAIR      42  34  73 SE10      29.76F
$$

NDZ004>008-012>016-024-026-027-054-241300-
...NORTHEAST NORTH DAKOTA...

CITY           SKY/WX    TMP DP  RH WIND       PRES   REMARKS
GRAND FORKS    FAIR      44  42  93 SE3       29.84F
GRAND FORKS AF FAIR      42  42  98 CALM      29.84S
DEVILS LAKE    FAIR      46  42  86 CALM      29.82F
$$

NDZ022-023-025-028>030-036>039-047>053-241300-
...SOUTHEAST NORTH DAKOTA...

CITY           SKY/WX    TMP DP  RH WIND       PRES   REMARKS
JAMESTOWN      FAIR      39  39 100 SE3       29.81F FOG
FARGO          FAIR      43  42  97 CALM      29.84S
WAHPETON       CLOUDY    46  43  87 CALM      29.84S
$$




USA.gov is the U.S. government's official web portal to all federal, state and local government web resources and services.